Time,TemperatureF,DewpointF,PressureIn,WindDirection,WindDirectionDegrees,WindSpeedMPH,WindSpeedGustMPH,Humidity,HourlyPrecipIn,Conditions,Clouds,dailyrainin,SoftwareType,DateUTC
2013-05-17 00:02:00,62.5,59.8,29.78,SE,146,3.0,3.0,91,0.00,,,0.00,Wunderground v.1.15,2013-05-17 05:02:00,
2013-05-17 00:08:00,62.5,59.8,29.78,ESE,108,3.0,4.0,91,0.00,,,0.00,Wunderground v.1.15,2013-05-17 05:08:00,
2013-05-17 00:13:00,62.5,59.5,29.79,NE,34,3.0,7.0,90,0.00,,,0.00,Wunderground v.1.15,2013-05-17 05:13:00,
2013-05-17 00:19:00,62.5,59.5,29.79,NE,48,2.0,7.0,90,0.00,,,0.00,Wunderground v.1.15,2013-05-17 05:19:00,
2013-05-17 00:25:00,62.5,59.5,29.79,ENE,63,0.0,3.0,90,0.00,,,0.00,Wunderground v.1.15,2013-05-17 05:25:00,
2013-05-17 00:31:00,62.4,59.4,29.80,NE,40,5.0,5.0,90,0.00,,,0.00,Wunderground v.1.15,2013-05-17 05:31:00,
2013-05-17 00:36:00,62.3,59.3,29.80,NE,40,4.0,5.0,90,0.00,,,0.00,Wunderground v.1.15,2013-05-17 05:36:00,
2013-05-17 00:43:00,62.0,59.0,29.79,NE,54,10.0,10.0,90,0.00,,,0.00,Wunderground v.1.15,2013-05-17 05:43:00,
2013-05-17 00:49:00,61.7,59.0,29.79,ENE,60,6.0,10.0,91,0.00,,,0.00,Wunderground v.1.15,2013-05-17 05:49:00,
2013-05-17 00:55:00,61.5,58.8,29.79,NE,51,7.0,9.0,91,0.00,,,0.00,Wunderground v.1.15,2013-05-17 05:55:00,
2013-05-17 01:00:00,61.3,59.0,29.79,NE,49,6.0,9.0,92,0.00,,,0.00,Wunderground v.1.15,2013-05-17 06:00:00,
2013-05-17 01:06:00,61.3,59.0,29.80,North,360,6.0,7.0,92,0.00,,,0.00,Wunderground v.1.15,2013-05-17 06:06:00,
2013-05-17 01:12:00,61.3,59.3,29.80,North,360,5.0,6.0,93,0.00,,,0.00,Wunderground v.1.15,2013-05-17 06:12:00,
2013-05-17 01:18:00,61.2,59.2,29.81,NNE,28,5.0,8.0,93,0.21,,,0.02,Wunderground v.1.15,2013-05-17 06:18:00,
2013-05-17 01:23:00,61.2,59.2,29.80,NE,38,5.0,5.0,93,0.11,,,0.03,Wunderground v.1.15,2013-05-17 06:23:00,
2013-05-17 01:30:00,61.2,59.5,29.80,NNE,17,4.0,10.0,94,0.13,,,0.05,Wunderground v.1.15,2013-05-17 06:30:00,
2013-05-17 01:36:00,61.3,59.6,29.81,NNE,26,10.0,10.0,94,0.29,,,0.10,Wunderground v.1.15,2013-05-17 06:36:00,
2013-05-17 01:42:00,61.2,59.5,29.80,East,87,9.0,9.0,94,0.15,,,0.11,Wunderground v.1.15,2013-05-17 06:42:00,
2013-05-17 01:47:00,61.2,59.2,29.80,NE,53,6.0,9.0,93,0.08,,,0.12,Wunderground v.1.15,2013-05-17 06:47:00,
2013-05-17 01:53:00,61.2,59.2,29.80,NNE,25,6.0,7.0,93,0.08,,,0.12,Wunderground v.1.15,2013-05-17 06:53:00,
2013-05-17 01:59:00,61.1,59.1,29.80,NNE,22,6.0,9.0,93,0.05,,,0.12,Wunderground v.1.15,2013-05-17 06:59:00,
2013-05-17 02:04:00,61.0,59.0,29.80,NE,44,6.0,8.0,93,0.00,,,0.12,Wunderground v.1.15,2013-05-17 07:04:00,
2013-05-17 02:09:00,61.0,59.3,29.79,NE,52,7.0,10.0,94,0.00,,,0.12,Wunderground v.1.15,2013-05-17 07:09:00,
2013-05-17 02:14:00,60.8,59.1,29.79,ENE,61,9.0,9.0,94,0.00,,,0.12,Wunderground v.1.15,2013-05-17 07:14:00,
2013-05-17 02:19:00,60.7,59.0,29.79,NE,51,6.0,10.0,94,0.00,,,0.12,Wunderground v.1.15,2013-05-17 07:19:00,
2013-05-17 02:24:00,60.7,59.0,29.79,NE,36,4.0,6.0,94,0.00,,,0.12,Wunderground v.1.15,2013-05-17 07:24:00,
2013-05-17 02:29:00,60.6,58.9,29.79,NNE,26,5.0,8.0,94,0.00,,,0.12,Wunderground v.1.15,2013-05-17 07:29:00,
2013-05-17 02:34:00,60.6,59.2,29.79,NE,34,6.0,8.0,95,0.00,,,0.12,Wunderground v.1.15,2013-05-17 07:34:00,
2013-05-17 02:39:00,60.6,59.2,29.79,NNE,24,8.0,10.0,95,0.00,,,0.12,Wunderground v.1.15,2013-05-17 07:39:00,
2013-05-17 02:44:00,60.5,59.1,29.79,NNE,13,8.0,10.0,95,0.00,,,0.12,Wunderground v.1.15,2013-05-17 07:44:00,
2013-05-17 02:49:00,60.5,59.1,29.79,NE,34,8.0,13.0,95,0.00,,,0.12,Wunderground v.1.15,2013-05-17 07:49:00,
2013-05-17 02:54:00,60.5,59.1,29.79,NE,38,10.0,12.0,95,0.00,,,0.12,Wunderground v.1.15,2013-05-17 07:54:00,
2013-05-17 02:59:00,60.4,59.0,29.79,NE,44,9.0,12.0,95,0.00,,,0.12,Wunderground v.1.15,2013-05-17 07:59:00,
2013-05-17 03:04:00,60.4,59.0,29.79,East,82,9.0,11.0,95,0.00,,,0.12,Wunderground v.1.15,2013-05-17 08:04:00,
2013-05-17 03:09:00,60.4,59.0,29.79,ESE,117,1.0,11.0,95,0.00,,,0.12,Wunderground v.1.15,2013-05-17 08:09:00,
2013-05-17 03:14:00,60.4,59.0,29.79,NE,53,4.0,7.0,95,0.00,,,0.12,Wunderground v.1.15,2013-05-17 08:14:00,
2013-05-17 03:19:00,60.4,59.3,29.79,South,184,2.0,8.0,96,0.00,,,0.12,Wunderground v.1.15,2013-05-17 08:19:00,
2013-05-17 03:24:00,60.4,59.3,29.79,NE,38,1.0,4.0,96,0.00,,,0.12,Wunderground v.1.15,2013-05-17 08:24:00,
2013-05-17 03:29:00,60.5,59.1,29.80,NE,41,2.0,8.0,95,0.00,,,0.12,Wunderground v.1.15,2013-05-17 08:29:00,
2013-05-17 03:34:00,60.6,59.2,29.79,ESE,111,2.0,6.0,95,0.00,,,0.12,Wunderground v.1.15,2013-05-17 08:34:00,
2013-05-17 03:39:00,60.7,59.3,29.80,SSE,163,4.0,6.0,95,0.00,,,0.12,Wunderground v.1.15,2013-05-17 08:39:00,
2013-05-17 03:44:00,60.8,59.4,29.80,South,185,2.0,5.0,95,0.00,,,0.12,Wunderground v.1.15,2013-05-17 08:44:00,
2013-05-17 03:49:00,60.8,59.4,29.80,SSW,200,7.0,9.0,95,0.00,,,0.12,Wunderground v.1.15,2013-05-17 08:49:00,
2013-05-17 03:54:00,60.9,59.5,29.80,SSW,199,4.0,10.0,95,0.00,,,0.12,Wunderground v.1.15,2013-05-17 08:54:00,
2013-05-17 03:59:00,61.0,59.3,29.79,NE,47,1.0,10.0,94,0.00,,,0.12,Wunderground v.1.15,2013-05-17 08:59:00,
2013-05-17 04:04:00,61.1,59.7,29.79,NE,54,2.0,8.0,95,0.00,,,0.12,Wunderground v.1.15,2013-05-17 09:04:00,
2013-05-17 04:09:00,61.2,59.5,29.79,East,98,11.0,16.0,94,0.00,,,0.12,Wunderground v.1.15,2013-05-17 09:09:00,
2013-05-17 04:15:00,61.5,59.8,29.79,ENE,69,6.0,12.0,94,0.00,,,0.12,Wunderground v.1.15,2013-05-17 09:15:00,
2013-05-17 04:20:00,61.6,59.6,29.79,ENE,73,11.0,14.0,93,0.00,,,0.12,Wunderground v.1.15,2013-05-17 09:20:00,
2013-05-17 04:25:00,61.7,59.7,29.79,East,80,5.0,15.0,93,0.00,,,0.12,Wunderground v.1.15,2013-05-17 09:25:00,
2013-05-17 04:30:00,61.6,59.6,29.79,NE,50,5.0,15.0,93,0.00,,,0.12,Wunderground v.1.15,2013-05-17 09:30:00,
2013-05-17 04:35:00,61.5,59.5,29.79,ESE,117,4.0,7.0,93,0.00,,,0.12,Wunderground v.1.15,2013-05-17 09:35:00,
2013-05-17 04:40:00,61.4,59.7,29.79,East,96,2.0,9.0,94,0.00,,,0.12,Wunderground v.1.15,2013-05-17 09:40:00,
2013-05-17 04:45:00,61.4,59.7,29.79,ENE,59,4.0,9.0,94,0.00,,,0.12,Wunderground v.1.15,2013-05-17 09:45:00,
2013-05-17 04:50:00,61.3,59.6,29.79,NE,38,2.0,9.0,94,0.00,,,0.12,Wunderground v.1.15,2013-05-17 09:50:00,
2013-05-17 04:55:00,61.3,59.6,29.80,East,90,1.0,4.0,94,0.00,,,0.12,Wunderground v.1.15,2013-05-17 09:55:00,
2013-05-17 05:00:00,61.3,59.6,29.80,East,97,10.0,10.0,94,0.00,,,0.12,Wunderground v.1.15,2013-05-17 10:00:00,
2013-05-17 05:05:00,61.3,59.6,29.80,ENE,66,4.0,7.0,94,0.00,,,0.12,Wunderground v.1.15,2013-05-17 10:05:00,
2013-05-17 05:10:00,61.3,59.6,29.80,ESE,108,2.0,8.0,94,0.00,,,0.12,Wunderground v.1.15,2013-05-17 10:10:00,
2013-05-17 05:15:00,61.2,59.5,29.80,ENE,78,2.0,7.0,94,0.00,,,0.12,Wunderground v.1.15,2013-05-17 10:15:00,
2013-05-17 05:20:00,61.2,59.5,29.80,ESE,108,0.0,7.0,94,0.00,,,0.12,Wunderground v.1.15,2013-05-17 10:20:00,
2013-05-17 05:25:00,61.1,59.4,29.80,SSE,161,2.0,7.0,94,0.00,,,0.12,Wunderground v.1.15,2013-05-17 10:25:00,
2013-05-17 05:30:00,61.1,59.7,29.80,ENE,74,2.0,7.0,95,0.00,,,0.12,Wunderground v.1.15,2013-05-17 10:30:00,
2013-05-17 05:35:00,61.2,59.8,29.80,South,173,2.0,7.0,95,0.00,,,0.12,Wunderground v.1.15,2013-05-17 10:35:00,
2013-05-17 05:40:00,61.2,59.8,29.80,SSE,150,2.0,7.0,95,0.00,,,0.12,Wunderground v.1.15,2013-05-17 10:40:00,
2013-05-17 05:45:00,61.2,59.8,29.80,SE,137,1.0,4.0,95,0.00,,,0.12,Wunderground v.1.15,2013-05-17 10:45:00,
2013-05-17 05:51:00,61.2,59.8,29.80,ESE,117,2.0,8.0,95,0.00,,,0.12,Wunderground v.1.15,2013-05-17 10:51:00,
2013-05-17 05:56:00,61.2,59.8,29.81,SE,146,3.0,4.0,95,0.00,,,0.12,Wunderground v.1.15,2013-05-17 10:56:00,
2013-05-17 06:01:00,61.2,59.8,29.81,SE,135,5.0,6.0,95,0.00,,,0.12,Wunderground v.1.15,2013-05-17 11:01:00,
2013-05-17 06:06:00,61.2,59.8,29.81,SSE,154,8.0,8.0,95,0.00,,,0.12,Wunderground v.1.15,2013-05-17 11:06:00,
2013-05-17 06:11:00,61.2,59.8,29.81,SE,132,5.0,10.0,95,0.00,,,0.12,Wunderground v.1.15,2013-05-17 11:11:00,
2013-05-17 06:16:00,61.3,59.9,29.81,ESE,109,4.0,8.0,95,0.00,,,0.12,Wunderground v.1.15,2013-05-17 11:16:00,
2013-05-17 06:21:00,61.3,59.9,29.81,ESE,113,3.0,8.0,95,0.00,,,0.12,Wunderground v.1.15,2013-05-17 11:21:00,
2013-05-17 06:26:00,61.3,59.9,29.81,ESE,104,3.0,9.0,95,0.00,,,0.12,Wunderground v.1.15,2013-05-17 11:26:00,
2013-05-17 06:31:00,61.4,60.0,29.81,SE,131,2.0,9.0,95,0.00,,,0.12,Wunderground v.1.15,2013-05-17 11:31:00,
2013-05-17 06:36:00,61.4,60.0,29.82,SE,143,3.0,8.0,95,0.00,,,0.12,Wunderground v.1.15,2013-05-17 11:36:00,
2013-05-17 06:41:00,61.5,60.1,29.82,SE,135,9.0,10.0,95,0.00,,,0.12,Wunderground v.1.15,2013-05-17 11:41:00,
2013-05-17 06:46:00,61.5,60.1,29.82,SSE,150,5.0,12.0,95,0.00,,,0.12,Wunderground v.1.15,2013-05-17 11:46:00,
2013-05-17 06:51:00,61.6,60.2,29.83,SE,136,7.0,12.0,95,0.00,,,0.12,Wunderground v.1.15,2013-05-17 11:51:00,
2013-05-17 06:56:00,61.6,60.2,29.82,SSE,154,6.0,10.0,95,0.00,,,0.12,Wunderground v.1.15,2013-05-17 11:56:00,
2013-05-17 07:01:00,61.6,60.2,29.82,SSE,157,8.0,12.0,95,0.00,,,0.12,Wunderground v.1.15,2013-05-17 12:01:00,
2013-05-17 07:06:00,61.6,59.9,29.83,SE,142,9.0,11.0,94,0.00,,,0.12,Wunderground v.1.15,2013-05-17 12:06:00,
2013-05-17 07:11:00,61.7,60.0,29.83,SE,141,5.0,13.0,94,0.00,,,0.12,Wunderground v.1.15,2013-05-17 12:11:00,
2013-05-17 07:16:00,61.9,60.5,29.83,SE,138,9.0,11.0,95,0.00,,,0.12,Wunderground v.1.15,2013-05-17 12:16:00,
2013-05-17 07:21:00,62.0,60.6,29.83,SE,129,7.0,11.0,95,0.00,,,0.12,Wunderground v.1.15,2013-05-17 12:21:00,
2013-05-17 07:26:00,62.2,60.5,29.83,SE,143,6.0,15.0,94,0.00,,,0.12,Wunderground v.1.15,2013-05-17 12:26:00,
2013-05-17 07:31:00,62.3,60.6,29.83,SE,129,10.0,15.0,94,0.00,,,0.12,Wunderground v.1.15,2013-05-17 12:31:00,
2013-05-17 07:36:00,62.5,60.7,29.83,ESE,121,11.0,13.0,94,0.00,,,0.12,Wunderground v.1.15,2013-05-17 12:36:00,
2013-05-17 07:42:00,62.5,60.7,29.83,SE,137,4.0,7.0,94,0.00,,,0.12,Wunderground v.1.15,2013-05-17 12:42:00,
2013-05-17 07:47:00,62.7,60.9,29.83,SE,132,9.0,11.0,94,0.00,,,0.12,Wunderground v.1.15,2013-05-17 12:47:00,
2013-05-17 07:52:00,62.8,60.7,29.83,ESE,105,4.0,7.0,93,0.00,,,0.12,Wunderground v.1.15,2013-05-17 12:52:00,
2013-05-17 07:57:00,63.1,61.0,29.83,SE,130,8.0,11.0,93,0.00,,,0.12,Wunderground v.1.15,2013-05-17 12:57:00,
2013-05-17 08:02:00,63.4,61.0,29.84,ESE,110,6.0,8.0,92,0.00,,,0.12,Wunderground v.1.15,2013-05-17 13:02:00,
2013-05-17 08:07:00,63.7,61.3,29.84,ESE,109,12.0,16.0,92,0.00,,,0.12,Wunderground v.1.15,2013-05-17 13:07:00,
2013-05-17 08:12:00,63.9,61.5,29.84,SE,132,12.0,12.0,92,0.00,,,0.12,Wunderground v.1.15,2013-05-17 13:12:00,
2013-05-17 08:17:00,64.0,61.3,29.84,SSE,150,9.0,18.0,91,0.00,,,0.12,Wunderground v.1.15,2013-05-17 13:17:00,
2013-05-17 08:22:00,64.2,61.5,29.84,SE,130,14.0,17.0,91,0.00,,,0.12,Wunderground v.1.15,2013-05-17 13:22:00,
2013-05-17 08:27:00,64.5,61.8,29.83,SE,143,8.0,18.0,91,0.00,,,0.12,Wunderground v.1.15,2013-05-17 13:27:00,
2013-05-17 08:32:00,65.1,62.1,29.84,ESE,109,13.0,13.0,90,0.00,,,0.12,Wunderground v.1.15,2013-05-17 13:32:00,
2013-05-17 08:37:00,65.4,62.4,29.83,SSE,157,12.0,19.0,90,0.00,,,0.12,Wunderground v.1.15,2013-05-17 13:37:00,
2013-05-17 08:42:00,65.7,62.4,29.83,SE,130,16.0,18.0,89,0.00,,,0.12,Wunderground v.1.15,2013-05-17 13:42:00,
2013-05-17 08:47:00,65.9,62.2,29.84,SE,127,11.0,20.0,88,0.00,,,0.12,Wunderground v.1.15,2013-05-17 13:47:00,
2013-05-17 08:52:00,66.0,62.3,29.84,SE,144,13.0,16.0,88,0.00,,,0.12,Wunderground v.1.15,2013-05-17 13:52:00,
2013-05-17 08:57:00,66.0,62.3,29.84,SE,143,11.0,23.0,88,0.00,,,0.12,Wunderground v.1.15,2013-05-17 13:57:00,
2013-05-17 09:02:00,66.2,62.5,29.84,SE,142,16.0,18.0,88,0.00,,,0.12,Wunderground v.1.15,2013-05-17 14:02:00,
2013-05-17 09:07:00,66.3,63.0,29.84,SE,146,13.0,21.0,89,0.00,,,0.12,Wunderground v.1.15,2013-05-17 14:07:00,
2013-05-17 09:12:00,66.6,62.9,29.84,SE,132,11.0,18.0,88,0.00,,,0.12,Wunderground v.1.15,2013-05-17 14:12:00,
2013-05-17 09:17:00,66.5,62.8,29.84,SE,140,10.0,19.0,88,0.00,,,0.12,Wunderground v.1.15,2013-05-17 14:17:00,
2013-05-17 09:22:00,66.6,62.9,29.84,ESE,119,12.0,16.0,88,0.00,,,0.12,Wunderground v.1.15,2013-05-17 14:22:00,
2013-05-17 09:27:00,66.8,62.8,29.84,SE,131,17.0,18.0,87,0.00,,,0.12,Wunderground v.1.15,2013-05-17 14:27:00,
2013-05-17 09:32:00,67.0,62.7,29.84,SE,138,14.0,20.0,86,0.00,,,0.12,Wunderground v.1.15,2013-05-17 14:32:00,
2013-05-17 09:37:00,67.0,63.3,29.84,SE,134,13.0,20.0,88,0.00,,,0.12,Wunderground v.1.15,2013-05-17 14:37:00,
2013-05-17 09:42:00,66.9,63.6,29.84,SE,136,10.0,15.0,89,0.00,,,0.12,Wunderground v.1.15,2013-05-17 14:42:00,
2013-05-17 09:47:00,67.5,63.5,29.83,SE,144,12.0,16.0,87,0.00,,,0.12,Wunderground v.1.15,2013-05-17 14:47:00,
2013-05-17 09:52:00,67.7,63.4,29.84,SE,137,12.0,18.0,86,0.00,,,0.12,Wunderground v.1.15,2013-05-17 14:52:00,
2013-05-17 09:57:00,68.2,64.2,29.84,SE,130,12.0,18.0,87,0.00,,,0.12,Wunderground v.1.15,2013-05-17 14:57:00,
2013-05-17 10:02:00,68.5,65.1,29.83,SE,126,12.0,17.0,89,0.00,,,0.12,Wunderground v.1.15,2013-05-17 15:02:00,
2013-05-17 10:07:00,68.8,64.4,29.83,SE,138,12.0,17.0,86,0.00,,,0.12,Wunderground v.1.15,2013-05-17 15:07:00,
2013-05-17 10:12:00,69.2,64.8,29.84,SSE,160,12.0,13.0,86,0.00,,,0.12,Wunderground v.1.15,2013-05-17 15:12:00,
2013-05-17 10:17:00,69.7,64.0,29.83,SE,138,14.0,18.0,82,0.00,,,0.12,Wunderground v.1.15,2013-05-17 15:17:00,
2013-05-17 10:22:00,70.0,64.6,29.83,SE,135,9.0,16.0,83,0.00,,,0.12,Wunderground v.1.15,2013-05-17 15:22:00,
2013-05-17 10:28:00,70.0,64.6,29.84,SSE,148,12.0,16.0,83,0.00,,,0.12,Wunderground v.1.15,2013-05-17 15:28:00,
2013-05-17 10:33:00,69.7,64.6,29.83,SE,140,15.0,16.0,84,0.00,,,0.12,Wunderground v.1.15,2013-05-17 15:33:00,
2013-05-17 10:38:00,70.2,65.1,29.84,SSE,165,7.0,18.0,84,0.00,,,0.12,Wunderground v.1.15,2013-05-17 15:38:00,
2013-05-17 10:43:00,70.8,66.1,29.83,SE,143,11.0,14.0,85,0.00,,,0.12,Wunderground v.1.15,2013-05-17 15:43:00,
2013-05-17 10:48:00,70.6,65.2,29.83,SSE,147,11.0,16.0,83,0.00,,,0.12,Wunderground v.1.15,2013-05-17 15:48:00,
2013-05-17 10:53:00,70.6,64.5,29.83,SSE,148,10.0,16.0,81,0.00,,,0.12,Wunderground v.1.15,2013-05-17 15:53:00,
2013-05-17 10:58:00,71.2,65.8,29.83,SE,141,13.0,18.0,83,0.00,,,0.12,Wunderground v.1.15,2013-05-17 15:58:00,
2013-05-17 11:03:00,71.3,65.2,29.83,SSE,147,9.0,12.0,81,0.00,,,0.12,Wunderground v.1.15,2013-05-17 16:03:00,
2013-05-17 11:08:00,71.5,65.4,29.83,SE,141,12.0,17.0,81,0.00,,,0.12,Wunderground v.1.15,2013-05-17 16:08:00,
2013-05-17 11:13:00,71.7,65.2,29.83,SE,142,9.0,15.0,80,0.00,,,0.12,Wunderground v.1.15,2013-05-17 16:13:00,
2013-05-17 11:18:00,72.3,66.1,29.83,SE,146,9.0,15.0,81,0.00,,,0.12,Wunderground v.1.15,2013-05-17 16:18:00,
2013-05-17 11:23:00,72.5,65.6,29.83,SE,142,11.0,18.0,79,0.00,,,0.12,Wunderground v.1.15,2013-05-17 16:23:00,
2013-05-17 11:28:00,72.2,65.0,29.83,SSE,155,9.0,18.0,78,0.00,,,0.12,Wunderground v.1.15,2013-05-17 16:28:00,
2013-05-17 11:33:00,72.5,65.6,29.83,SE,138,7.0,15.0,79,0.00,,,0.12,Wunderground v.1.15,2013-05-17 16:33:00,
2013-05-17 11:38:00,73.0,65.7,29.82,SE,134,12.0,16.0,78,0.00,,,0.12,Wunderground v.1.15,2013-05-17 16:38:00,
2013-05-17 11:43:00,73.4,67.6,29.82,SE,146,14.0,16.0,82,0.00,,,0.12,Wunderground v.1.15,2013-05-17 16:43:00,
2013-05-17 11:48:00,73.2,66.3,29.82,SE,136,11.0,17.0,79,0.00,,,0.12,Wunderground v.1.15,2013-05-17 16:48:00,
2013-05-17 11:53:00,74.0,66.7,29.82,SSE,156,11.0,16.0,78,0.00,,,0.12,Wunderground v.1.15,2013-05-17 16:53:00,
2013-05-17 11:58:00,73.9,65.1,29.82,SSE,164,7.0,16.0,74,0.00,,,0.12,Wunderground v.1.15,2013-05-17 16:58:00,
2013-05-17 12:03:00,73.9,65.5,29.82,SE,142,12.0,14.0,75,0.00,,,0.12,Wunderground v.1.15,2013-05-17 17:03:00,
2013-05-17 12:08:00,74.2,67.3,29.82,SSE,164,13.0,17.0,79,0.00,,,0.12,Wunderground v.1.15,2013-05-17 17:08:00,
2013-05-17 12:13:00,74.3,66.2,29.82,SSE,154,14.0,14.0,76,0.00,,,0.12,Wunderground v.1.15,2013-05-17 17:13:00,
2013-05-17 12:18:00,73.5,66.2,29.82,South,171,14.0,15.0,78,0.00,,,0.12,Wunderground v.1.15,2013-05-17 17:18:00,
2013-05-17 12:23:00,73.5,65.5,29.82,SSE,163,11.0,12.0,76,0.00,,,0.12,Wunderground v.1.15,2013-05-17 17:23:00,
2013-05-17 12:28:00,74.0,66.7,29.81,SSE,152,12.0,17.0,78,0.00,,,0.12,Wunderground v.1.15,2013-05-17 17:28:00,
2013-05-17 12:33:00,74.5,66.1,29.81,SSE,157,10.0,16.0,75,0.00,,,0.12,Wunderground v.1.15,2013-05-17 17:33:00,
2013-05-17 12:38:00,74.8,67.8,29.81,SSE,147,12.0,18.0,79,0.00,,,0.12,Wunderground v.1.15,2013-05-17 17:38:00,
2013-05-17 12:43:00,74.9,66.1,29.81,South,179,12.0,18.0,74,0.00,,,0.12,Wunderground v.1.15,2013-05-17 17:43:00,
2013-05-17 12:48:00,75.1,67.4,29.81,SE,144,9.0,18.0,77,0.00,,,0.12,Wunderground v.1.15,2013-05-17 17:48:00,
2013-05-17 12:53:00,75.3,67.6,29.81,SSE,155,15.0,18.0,77,0.00,,,0.12,Wunderground v.1.15,2013-05-17 17:53:00,
2013-05-17 12:58:00,74.9,66.1,29.81,SSE,164,14.0,18.0,74,0.00,,,0.12,Wunderground v.1.15,2013-05-17 17:58:00,
2013-05-17 13:03:00,75.8,67.3,29.81,SSE,164,13.0,16.0,75,0.00,,,0.12,Wunderground v.1.15,2013-05-17 18:03:00,
2013-05-17 13:08:00,75.7,66.8,29.81,SSE,151,17.0,19.0,74,0.00,,,0.12,Wunderground v.1.15,2013-05-17 18:08:00,
2013-05-17 13:13:00,75.3,66.4,29.81,SSE,167,12.0,13.0,74,0.00,,,0.12,Wunderground v.1.15,2013-05-17 18:13:00,
2013-05-17 13:18:00,75.3,66.0,29.81,South,175,11.0,18.0,73,0.00,,,0.12,Wunderground v.1.15,2013-05-17 18:18:00,
2013-05-17 13:23:00,75.6,67.1,29.81,South,170,8.0,13.0,75,0.00,,,0.12,Wunderground v.1.15,2013-05-17 18:23:00,
2013-05-17 13:28:00,75.5,67.4,29.81,SSE,163,17.0,17.0,76,0.00,,,0.12,Wunderground v.1.15,2013-05-17 18:28:00,
2013-05-17 13:33:00,75.9,66.6,29.81,South,176,10.0,19.0,73,0.00,,,0.12,Wunderground v.1.15,2013-05-17 18:33:00,
2013-05-17 13:38:00,76.9,67.2,29.81,SSE,150,9.0,19.0,72,0.00,,,0.12,Wunderground v.1.15,2013-05-17 18:38:00,
2013-05-17 13:43:00,76.7,66.2,29.81,South,186,6.0,12.0,70,0.00,,,0.12,Wunderground v.1.15,2013-05-17 18:43:00,
2013-05-17 13:48:00,78.4,66.5,29.81,SSE,165,13.0,15.0,67,0.00,,,0.12,Wunderground v.1.15,2013-05-17 18:48:00,
2013-05-17 13:53:00,77.0,65.6,29.81,SE,140,9.0,13.0,68,0.00,,,0.12,Wunderground v.1.15,2013-05-17 18:53:00,
2013-05-17 13:58:00,77.8,65.1,29.81,South,170,10.0,14.0,65,0.00,,,0.12,Wunderground v.1.15,2013-05-17 18:58:00,
2013-05-17 14:04:00,76.9,66.0,29.81,South,175,11.0,18.0,69,0.00,,,0.12,Wunderground v.1.15,2013-05-17 19:04:00,
2013-05-17 14:09:00,77.8,66.4,29.80,SSE,156,9.0,18.0,68,0.00,,,0.12,Wunderground v.1.15,2013-05-17 19:09:00,
2013-05-17 14:13:00,77.4,66.0,29.80,SSE,159,12.0,15.0,68,0.00,,,0.12,Wunderground v.1.15,2013-05-17 19:13:00,
2013-05-17 14:18:00,77.9,66.5,29.80,SSE,152,11.0,20.0,68,0.00,,,0.12,Wunderground v.1.15,2013-05-17 19:18:00,
2013-05-17 14:23:00,78.0,65.3,29.80,South,187,13.0,16.0,65,0.00,,,0.12,Wunderground v.1.15,2013-05-17 19:23:00,
2013-05-17 14:28:00,78.8,65.1,29.80,South,190,15.0,17.0,63,0.00,,,0.12,Wunderground v.1.15,2013-05-17 19:28:00,
2013-05-17 14:33:00,79.0,65.8,29.80,SSW,196,9.0,15.0,64,0.00,,,0.12,Wunderground v.1.15,2013-05-17 19:33:00,
2013-05-17 14:39:00,77.9,62.9,29.80,South,188,11.0,21.0,60,0.00,,,0.12,Wunderground v.1.15,2013-05-17 19:39:00,
2013-05-17 14:44:00,79.0,63.4,29.80,South,190,19.0,19.0,59,0.00,,,0.12,Wunderground v.1.15,2013-05-17 19:44:00,
2013-05-17 14:49:00,79.2,63.6,29.80,SSW,204,10.0,21.0,59,0.00,,,0.12,Wunderground v.1.15,2013-05-17 19:49:00,
2013-05-17 14:54:00,77.8,63.3,29.80,South,171,9.0,14.0,61,0.00,,,0.12,Wunderground v.1.15,2013-05-17 19:54:00,
2013-05-17 14:59:00,78.6,64.0,29.80,SSW,207,13.0,17.0,61,0.00,,,0.12,Wunderground v.1.15,2013-05-17 19:59:00,
2013-05-17 15:04:00,78.4,62.9,29.79,South,174,14.0,20.0,59,0.00,,,0.12,Wunderground v.1.15,2013-05-17 20:04:00,
2013-05-17 15:09:00,79.1,63.5,29.79,SSE,166,12.0,23.0,59,0.00,,,0.12,Wunderground v.1.15,2013-05-17 20:09:00,
2013-05-17 15:14:00,78.6,62.6,29.79,South,187,9.0,14.0,58,0.00,,,0.12,Wunderground v.1.15,2013-05-17 20:14:00,
2013-05-17 15:19:00,78.7,63.6,29.79,SSW,209,12.0,14.0,60,0.00,,,0.12,Wunderground v.1.15,2013-05-17 20:19:00,
2013-05-17 15:24:00,79.2,63.6,29.79,South,173,15.0,18.0,59,0.00,,,0.12,Wunderground v.1.15,2013-05-17 20:24:00,
2013-05-17 15:29:00,79.5,62.9,29.79,SSE,164,12.0,19.0,57,0.00,,,0.12,Wunderground v.1.15,2013-05-17 20:29:00,
2013-05-17 15:34:00,79.7,63.6,29.79,South,184,13.0,22.0,58,0.00,,,0.12,Wunderground v.1.15,2013-05-17 20:34:00,
2013-05-17 15:39:00,79.8,63.7,29.78,SSW,202,11.0,22.0,58,0.00,,,0.12,Wunderground v.1.15,2013-05-17 20:39:00,
2013-05-17 15:44:00,80.1,65.0,29.78,SSW,207,14.0,19.0,60,0.00,,,0.12,Wunderground v.1.15,2013-05-17 20:44:00,
2013-05-17 15:49:00,80.3,64.2,29.77,South,175,11.0,19.0,58,0.00,,,0.12,Wunderground v.1.15,2013-05-17 20:49:00,
2013-05-17 15:54:00,80.4,65.2,29.77,SSE,165,13.0,17.0,60,0.00,,,0.12,Wunderground v.1.15,2013-05-17 20:54:00,
2013-05-17 15:59:00,80.6,65.9,29.77,South,171,11.0,19.0,61,0.00,,,0.12,Wunderground v.1.15,2013-05-17 20:59:00,
2013-05-17 16:04:00,80.7,65.0,29.77,South,187,12.0,18.0,59,0.00,,,0.12,Wunderground v.1.15,2013-05-17 21:04:00,
2013-05-17 16:09:00,80.7,63.5,29.77,South,169,14.0,18.0,56,0.00,,,0.12,Wunderground v.1.15,2013-05-17 21:09:00,
2013-05-17 16:14:00,80.4,62.8,29.77,SSE,158,13.0,16.0,55,0.00,,,0.12,Wunderground v.1.15,2013-05-17 21:14:00,
2013-05-17 16:19:00,80.0,62.9,29.77,SSW,199,17.0,19.0,56,0.00,,,0.12,Wunderground v.1.15,2013-05-17 21:19:00,
2013-05-17 16:24:00,79.4,63.8,29.77,South,189,12.0,16.0,59,0.00,,,0.12,Wunderground v.1.15,2013-05-17 21:24:00,
2013-05-17 16:29:00,80.5,64.4,29.77,South,178,13.0,23.0,58,0.00,,,0.12,Wunderground v.1.15,2013-05-17 21:29:00,
2013-05-17 16:34:00,80.6,63.5,29.77,SSW,207,12.0,20.0,56,0.00,,,0.12,Wunderground v.1.15,2013-05-17 21:34:00,
2013-05-17 16:39:00,80.3,63.7,29.77,SSW,199,10.0,20.0,57,0.00,,,0.12,Wunderground v.1.15,2013-05-17 21:39:00,
2013-05-17 16:44:00,80.3,64.2,29.77,SSW,195,13.0,17.0,58,0.00,,,0.12,Wunderground v.1.15,2013-05-17 21:44:00,
2013-05-17 16:49:00,79.3,63.7,29.77,South,190,11.0,18.0,59,0.00,,,0.12,Wunderground v.1.15,2013-05-17 21:49:00,
2013-05-17 16:54:00,78.2,64.1,29.77,South,188,11.0,13.0,62,0.00,,,0.12,Wunderground v.1.15,2013-05-17 21:54:00,
2013-05-17 16:59:00,78.3,63.3,29.77,SSW,202,12.0,15.0,60,0.00,,,0.12,Wunderground v.1.15,2013-05-17 21:59:00,
2013-05-17 17:04:00,79.4,63.8,29.77,SSW,208,10.0,16.0,59,0.00,,,0.12,Wunderground v.1.15,2013-05-17 22:04:00,
2013-05-17 17:09:00,79.6,63.0,29.78,South,190,8.0,16.0,57,0.00,,,0.12,Wunderground v.1.15,2013-05-17 22:09:00,
2013-05-17 17:14:00,78.8,63.3,29.77,South,186,11.0,16.0,59,0.00,,,0.12,Wunderground v.1.15,2013-05-17 22:14:00,
2013-05-17 17:19:00,78.3,62.8,29.77,SSW,206,11.0,16.0,59,0.00,,,0.12,Wunderground v.1.15,2013-05-17 22:19:00,
2013-05-17 17:24:00,79.3,63.2,29.77,SSW,198,8.0,17.0,58,0.00,,,0.12,Wunderground v.1.15,2013-05-17 22:24:00,
2013-05-17 17:29:00,79.8,63.2,29.76,South,181,16.0,19.0,57,0.00,,,0.12,Wunderground v.1.15,2013-05-17 22:29:00,
2013-05-17 17:34:00,80.1,62.5,29.77,South,173,12.0,15.0,55,0.00,,,0.12,Wunderground v.1.15,2013-05-17 22:34:00,
2013-05-17 17:39:00,79.8,63.2,29.77,SSE,164,9.0,16.0,57,0.00,,,0.12,Wunderground v.1.15,2013-05-17 22:39:00,
2013-05-17 17:44:00,79.9,61.8,29.77,SSE,159,14.0,19.0,54,0.00,,,0.12,Wunderground v.1.15,2013-05-17 22:44:00,
2013-05-17 17:49:00,79.1,62.6,29.77,South,181,11.0,19.0,57,0.00,,,0.12,Wunderground v.1.15,2013-05-17 22:49:00,
2013-05-17 17:55:00,79.1,63.1,29.78,South,187,12.0,15.0,58,0.00,,,0.12,Wunderground v.1.15,2013-05-17 22:55:00,
2013-05-17 18:00:00,79.9,62.8,29.78,South,180,9.0,15.0,56,0.00,,,0.12,Wunderground v.1.15,2013-05-17 23:00:00,
2013-05-17 18:05:00,80.3,62.7,29.78,South,182,10.0,15.0,55,0.00,,,0.12,Wunderground v.1.15,2013-05-17 23:05:00,
2013-05-17 18:10:00,80.1,62.5,29.78,South,184,8.0,16.0,55,0.00,,,0.12,Wunderground v.1.15,2013-05-17 23:10:00,
2013-05-17 18:15:00,80.0,61.3,29.79,South,186,11.0,16.0,53,0.00,,,0.12,Wunderground v.1.15,2013-05-17 23:15:00,
2013-05-17 18:20:00,79.7,62.6,29.79,SSE,150,11.0,16.0,56,0.00,,,0.12,Wunderground v.1.15,2013-05-17 23:20:00,
2013-05-17 18:25:00,79.5,62.4,29.79,SE,140,12.0,14.0,56,0.00,,,0.12,Wunderground v.1.15,2013-05-17 23:25:00,
2013-05-17 18:30:00,76.7,63.6,29.79,SSE,165,6.0,14.0,64,0.00,,,0.12,Wunderground v.1.15,2013-05-17 23:30:00,
2013-05-17 18:35:00,74.4,63.1,29.79,East,81,11.0,12.0,68,0.00,,,0.12,Wunderground v.1.15,2013-05-17 23:35:00,
2013-05-17 18:40:00,73.8,63.0,29.79,SSE,162,10.0,14.0,69,0.00,,,0.12,Wunderground v.1.15,2013-05-17 23:40:00,
2013-05-17 18:45:00,72.9,63.3,29.79,SSE,148,10.0,16.0,72,0.00,,,0.12,Wunderground v.1.15,2013-05-17 23:45:00,
2013-05-17 18:50:00,72.6,63.4,29.79,ESE,117,9.0,17.0,73,0.00,,,0.12,Wunderground v.1.15,2013-05-17 23:50:00,
2013-05-17 18:55:00,72.5,63.7,29.79,SSE,156,12.0,16.0,74,0.00,,,0.12,Wunderground v.1.15,2013-05-17 23:55:00,
2013-05-17 19:00:00,72.6,63.4,29.80,SE,143,15.0,18.0,73,0.00,,,0.12,Wunderground v.1.15,2013-05-18 00:00:00,
2013-05-17 19:05:00,72.3,63.2,29.79,SSE,150,3.0,18.0,73,0.00,,,0.12,Wunderground v.1.15,2013-05-18 00:05:00,
2013-05-17 19:10:00,71.5,62.8,29.79,SE,137,10.0,18.0,74,0.00,,,0.12,Wunderground v.1.15,2013-05-18 00:10:00,
2013-05-17 19:15:00,70.8,62.9,29.79,ESE,120,12.0,18.0,76,0.00,,,0.12,Wunderground v.1.15,2013-05-18 00:15:00,
2013-05-17 19:20:00,70.6,61.9,29.79,SE,138,11.0,19.0,74,0.00,,,0.12,Wunderground v.1.15,2013-05-18 00:20:00,
2013-05-17 19:25:00,70.8,60.9,29.79,SE,139,14.0,22.0,71,0.00,,,0.12,Wunderground v.1.15,2013-05-18 00:25:00,
2013-05-17 19:30:00,71.0,60.7,29.79,SE,143,13.0,22.0,70,0.00,,,0.12,Wunderground v.1.15,2013-05-18 00:30:00,
2013-05-17 19:35:00,71.0,60.3,29.78,SE,142,13.0,20.0,69,0.00,,,0.12,Wunderground v.1.15,2013-05-18 00:35:00,
2013-05-17 19:40:00,71.0,61.1,29.78,ESE,117,15.0,20.0,71,0.00,,,0.12,Wunderground v.1.15,2013-05-18 00:40:00,
2013-05-17 19:45:00,71.0,61.1,29.78,SE,129,17.0,18.0,71,0.00,,,0.12,Wunderground v.1.15,2013-05-18 00:45:00,
2013-05-17 19:50:00,71.0,60.7,29.78,ESE,108,18.0,20.0,70,0.00,,,0.12,Wunderground v.1.15,2013-05-18 00:50:00,
2013-05-17 19:55:00,71.1,60.0,29.78,SE,142,10.0,16.0,68,0.00,,,0.12,Wunderground v.1.15,2013-05-18 00:55:00,
2013-05-17 20:00:00,71.1,59.6,29.78,SE,141,9.0,16.0,67,0.00,,,0.12,Wunderground v.1.15,2013-05-18 01:00:00,
2013-05-17 20:05:00,71.0,59.1,29.78,SE,130,9.0,15.0,66,0.00,,,0.12,Wunderground v.1.15,2013-05-18 01:05:00,
2013-05-17 20:10:00,71.1,59.6,29.78,SE,134,13.0,16.0,67,0.00,,,0.12,Wunderground v.1.15,2013-05-18 01:10:00,
2013-05-17 20:15:00,70.9,60.2,29.78,SE,131,7.0,14.0,69,0.00,,,0.12,Wunderground v.1.15,2013-05-18 01:15:00,
2013-05-17 20:20:00,70.3,60.1,29.78,SSE,148,6.0,14.0,70,0.00,,,0.12,Wunderground v.1.15,2013-05-18 01:20:00,
2013-05-17 20:25:00,70.0,59.8,29.78,SE,136,7.0,13.0,70,0.00,,,0.12,Wunderground v.1.15,2013-05-18 01:25:00,
2013-05-17 20:30:00,69.6,60.2,29.78,SE,144,5.0,13.0,72,0.00,,,0.12,Wunderground v.1.15,2013-05-18 01:30:00,
2013-05-17 20:35:00,69.3,59.9,29.78,SSE,160,10.0,13.0,72,0.00,,,0.12,Wunderground v.1.15,2013-05-18 01:35:00,
2013-05-17 20:40:00,69.1,60.1,29.78,SE,140,5.0,13.0,73,0.00,,,0.12,Wunderground v.1.15,2013-05-18 01:40:00,
2013-05-17 20:45:00,68.8,60.2,29.78,SSE,158,8.0,10.0,74,0.00,,,0.12,Wunderground v.1.15,2013-05-18 01:45:00,
2013-05-17 20:50:00,68.2,59.6,29.78,SE,135,4.0,10.0,74,0.00,,,0.12,Wunderground v.1.15,2013-05-18 01:50:00,
2013-05-17 20:55:00,67.9,59.7,29.78,SSE,152,10.0,10.0,75,0.00,,,0.12,Wunderground v.1.15,2013-05-18 01:55:00,
2013-05-17 21:00:00,67.9,59.3,29.79,SE,136,9.0,11.0,74,0.00,,,0.12,Wunderground v.1.15,2013-05-18 02:00:00,
2013-05-17 21:05:00,67.9,59.3,29.79,SE,141,5.0,10.0,74,0.00,,,0.12,Wunderground v.1.15,2013-05-18 02:05:00,
2013-05-17 21:10:00,67.6,59.0,29.79,SE,135,9.0,10.0,74,0.00,,,0.12,Wunderground v.1.15,2013-05-18 02:10:00,
2013-05-17 21:15:00,67.6,58.6,29.80,SE,146,5.0,11.0,73,0.00,,,0.12,Wunderground v.1.15,2013-05-18 02:15:00,
2013-05-17 21:20:00,67.6,59.0,29.80,SE,126,10.0,11.0,74,0.00,,,0.12,Wunderground v.1.15,2013-05-18 02:20:00,
2013-05-17 21:25:00,67.6,59.0,29.80,ESE,123,9.0,11.0,74,0.00,,,0.12,Wunderground v.1.15,2013-05-18 02:25:00,
2013-05-17 21:30:00,67.6,59.0,29.80,SE,140,9.0,13.0,74,0.00,,,0.12,Wunderground v.1.15,2013-05-18 02:30:00,
2013-05-17 21:35:00,67.5,59.7,29.81,SE,145,5.0,12.0,76,0.00,,,0.12,Wunderground v.1.15,2013-05-18 02:35:00,
2013-05-17 21:40:00,67.4,59.9,29.81,SE,138,10.0,12.0,77,0.00,,,0.12,Wunderground v.1.15,2013-05-18 02:40:00,
2013-05-17 21:45:00,67.4,59.9,29.81,SE,142,9.0,11.0,77,0.00,,,0.12,Wunderground v.1.15,2013-05-18 02:45:00,
2013-05-17 21:50:00,67.4,60.3,29.81,SE,141,7.0,12.0,78,0.00,,,0.12,Wunderground v.1.15,2013-05-18 02:50:00,
2013-05-17 21:55:00,67.3,60.9,29.81,SSE,148,10.0,12.0,80,0.00,,,0.12,Wunderground v.1.15,2013-05-18 02:55:00,
2013-05-17 22:00:00,67.5,61.1,29.81,SE,133,11.0,14.0,80,0.00,,,0.12,Wunderground v.1.15,2013-05-18 03:00:00,
2013-05-17 22:05:00,67.8,61.4,29.81,SE,138,12.0,14.0,80,0.00,,,0.12,Wunderground v.1.15,2013-05-18 03:05:00,
2013-05-17 22:10:00,68.0,61.6,29.82,SE,142,11.0,16.0,80,0.00,,,0.12,Wunderground v.1.15,2013-05-18 03:10:00,
2013-05-17 22:15:00,68.2,61.8,29.82,SSE,148,11.0,14.0,80,0.00,,,0.12,Wunderground v.1.15,2013-05-18 03:15:00,
2013-05-17 22:20:00,68.2,61.8,29.82,SE,141,11.0,14.0,80,0.00,,,0.12,Wunderground v.1.15,2013-05-18 03:20:00,
2013-05-17 22:25:00,68.1,61.7,29.82,SE,138,9.0,13.0,80,0.00,,,0.12,Wunderground v.1.15,2013-05-18 03:25:00,
2013-05-17 22:30:00,68.2,61.8,29.82,SE,144,12.0,14.0,80,0.00,,,0.12,Wunderground v.1.15,2013-05-18 03:30:00,
2013-05-17 22:35:00,68.3,61.9,29.82,SSE,147,8.0,14.0,80,0.00,,,0.12,Wunderground v.1.15,2013-05-18 03:35:00,
2013-05-17 22:40:00,68.1,61.7,29.82,SSE,153,8.0,14.0,80,0.00,,,0.12,Wunderground v.1.15,2013-05-18 03:40:00,
2013-05-17 22:45:00,68.1,61.7,29.82,SSE,150,10.0,14.0,80,0.00,,,0.12,Wunderground v.1.15,2013-05-18 03:45:00,
2013-05-17 22:50:00,68.1,61.7,29.82,SE,145,12.0,14.0,80,0.00,,,0.12,Wunderground v.1.15,2013-05-18 03:50:00,
2013-05-17 22:55:00,68.2,61.8,29.82,SSE,155,11.0,14.0,80,0.00,,,0.12,Wunderground v.1.15,2013-05-18 03:55:00,
2013-05-17 23:00:00,68.1,61.7,29.82,SSE,153,8.0,14.0,80,0.00,,,0.12,Wunderground v.1.15,2013-05-18 04:00:00,
2013-05-17 23:01:00,68.1,61.7,29.82,SE,144,12.0,14.0,80,0.00,,,0.12,Wunderground v.1.15,2013-05-18 04:01:00,
2013-05-17 23:06:00,67.9,61.5,29.82,SE,132,8.0,13.0,80,0.00,,,0.12,Wunderground v.1.15,2013-05-18 04:06:00,
2013-05-17 23:11:00,67.7,61.3,29.82,SE,132,9.0,13.0,80,0.00,,,0.12,Wunderground v.1.15,2013-05-18 04:11:00,
2013-05-17 23:16:00,67.6,61.2,29.83,SE,141,9.0,13.0,80,0.00,,,0.12,Wunderground v.1.15,2013-05-18 04:16:00,
2013-05-17 23:21:00,67.5,61.1,29.83,SE,135,4.0,13.0,80,0.00,,,0.12,Wunderground v.1.15,2013-05-18 04:21:00,
2013-05-17 23:26:00,67.3,60.9,29.82,SE,134,9.0,10.0,80,0.00,,,0.12,Wunderground v.1.15,2013-05-18 04:26:00,
2013-05-17 23:31:00,67.2,61.2,29.82,SSE,151,6.0,11.0,81,0.00,,,0.12,Wunderground v.1.15,2013-05-18 04:31:00,
2013-05-17 23:36:00,67.0,61.0,29.82,SE,140,5.0,13.0,81,0.00,,,0.12,Wunderground v.1.15,2013-05-18 04:36:00,
2013-05-17 23:41:00,67.0,61.0,29.82,SE,129,12.0,15.0,81,0.00,,,0.12,Wunderground v.1.15,2013-05-18 04:41:00,
2013-05-17 23:46:00,67.0,61.0,29.82,SE,133,8.0,14.0,81,0.00,,,0.12,Wunderground v.1.15,2013-05-18 04:46:00,
2013-05-17 23:51:00,67.0,61.0,29.82,SE,132,12.0,14.0,81,0.00,,,0.12,Wunderground v.1.15,2013-05-18 04:51:00,
2013-05-17 23:56:00,67.0,61.0,29.82,SE,144,10.0,15.0,81,0.00,,,0.12,Wunderground v.1.15,2013-05-18 04:56:00,